Weather in Altea

Spain     38°36′02″N   0°03′04″E
temp.,
°C
wind,
m/s
gust,
m/s
humid.,
%
clouds,
%
prec.,
mm/h
press.,
hPa
HPBL,
m
3 march, wed
wed301:00+14nne91287100 0.0 1028387
04:00+14nne101388100 0.0 1028661
07:00+14nne111387100 0.1 1028782
10:00+14nne8987100 0.1 1029614
13:00+14ne8985100 0.3 1029600
16:00+14nne897788 0.1 1026519
19:00+14nne7108050 0.1 1026609
22:00+13n798232 0.0 1027548
4 march, thu
thu401:00+13nne688157 0.1 1026594
04:00+13nne788366 0.2 1024683
07:00+13nne788033 0.3 1022754
10:00+13nne69770 0.0 1023734
13:00+14nne787132 0.0 1021471
16:00+14ne787494 0.0 1019369
19:00+14ne787649 0.0 1018424
22:00+13nne67770 0.0 1019494
5 march, fri
fri501:00+13nne777910 0.0 1018452
04:00+13nne677797 0.0 1017429
07:00+12nne787998 0.0 1017427
10:00+13nne6777100 0.0 1017548
13:00+13ne6779100 0.0 1017558
16:00+13ene6779100 0.0 1016457
19:00+13ene5680100 0.0 1016353
22:00+13ne447999 0.0 1018349
6 march, sat
sat601:00+13nne567999 0.0 1019367
04:00+12nne678060 0.0 1019371
07:00+12n787752 0.0 1020390
10:00+13nne797769 0.0 1022533
13:00+14ne787944 0.0 1022557
16:00+14ne898126 0.0 1021592
19:00+13nne8108243 0.0 1021592
22:00+13nne688388 0.0 1023434
7 march, sun
sun701:00+13nne788489 0.1 1023462
04:00+13nne81086100 0.3 1021482
07:00+13nne6887100 0.8 1021550
10:00+13nne7889100 1.8 1022556
13:00+13ne6788100 3.1 1022557
16:00+13nne6784100 0.9 1020414
19:00+13ne448198 0.9 1019240
22:00+13n44810 0.0 1020187